owner,sensor,date,latitude,longitude,vertical_datum,sea_water_practical_salinity,qcFlag 
ENP,ioos.station.NOAA.NDBC:LSNF1:1,2019-03-01T00:00:00Z,25.2350,-80.4570,1.5,30.93,1111122 
ENP,ioos.station.NOAA.NDBC:LSNF1:1,2019-03-01T11:00:00Z,25.2350,-80.4570,1.5,31.1,11111222 
ENP,ioos.station.NOAA.NDBC:LSNF1:1,2019-03-01T12:00:00Z,25.2350,-80.4570,1.5,31.2,11111222 
ENP,ioos.station.NOAA.NDBC:LSNF1:1,2019-03-01T13:00:00Z,25.2350,-80.4570,1.5,31.51,1111122 
ENP,ioos.station.NOAA.NDBC:LSNF1:1,2019-03-01T14:00:00Z,25.2350,-80.4570,1.5,31.51,1111122 
ENP,ioos.station.NOAA.NDBC:LSNF1:1,2019-03-01T15:00:00Z,25.2350,-80.4570,1.5,31.51,1111122 
ENP,ioos.station.NOAA.NDBC:LSNF1:1,2019-03-01T16:00:00Z,25.2350,-80.4570,1.5,31.58,1111122 
ENP,ioos.station.NOAA.NDBC:LSNF1:1,2019-03-01T17:00:00Z,25.2350,-80.4570,1.5,31.58,1111122 
ENP,ioos.station.NOAA.NDBC:LSNF1:1,2019-03-01T18:00:00Z,25.2350,-80.4570,1.5,31.6,11111222 
ENP,ioos.station.NOAA.NDBC:LSNF1:1,2019-03-01T19:00:00Z,25.2350,-80.4570,1.5,31.58,1111122 
ENP,ioos.station.NOAA.NDBC:LSNF1:1,2019-03-01T20:00:00Z,25.2350,-80.4570,1.5,31.58,1111122 
ENP,ioos.station.NOAA.NDBC:LSNF1:1,2019-03-01T21:00:00Z,25.2350,-80.4570,1.5,31.58,1111122 
ENP,ioos.station.NOAA.NDBC:LSNF1:1,2019-03-01T22:00:00Z,25.2350,-80.4570,1.5,31.44,1111122 
ENP,ioos.station.NOAA.NDBC:LSNF1:1,2019-03-01T23:00:00Z,25.2350,-80.4570,1.5,31.22,1111122 
ENP,ioos.station.NOAA.NDBC:LSNF1:1,2019-03-02T11:00:00Z,25.2350,-80.4570,1.5,31.5,11111222 
ENP,ioos.station.NOAA.NDBC:LSNF1:1,2019-03-02T12:00:00Z,25.2350,-80.4570,1.5,31.5,11111222 
ENP,ioos.station.NOAA.NDBC:LSNF1:1,2019-03-02T13:00:00Z,25.2350,-80.4570,1.5,31.51,1111122 
ENP,ioos.station.NOAA.NDBC:LSNF1:1,2019-03-02T14:00:00Z,25.2350,-80.4570,1.5,31.44,1111122 
ENP,ioos.station.NOAA.NDBC:LSNF1:1,2019-03-02T15:00:00Z,25.2350,-80.4570,1.5,31.51,1111122 
ENP,ioos.station.NOAA.NDBC:LSNF1:1,2019-03-02T16:00:00Z,25.2350,-80.4570,1.5,31.51,1111122 
ENP,ioos.station.NOAA.NDBC:LSNF1:1,2019-03-02T17:00:00Z,25.2350,-80.4570,1.5,31.44,1111122 
ENP,ioos.station.NOAA.NDBC:LSNF1:1,2019-03-02T18:00:00Z,25.2350,-80.4570,1.5,31.6,11111222 
ENP,ioos.station.NOAA.NDBC:LSNF1:1,2019-03-02T19:00:00Z,25.2350,-80.4570,1.5,31.44,1111122 
ENP,ioos.station.NOAA.NDBC:LSNF1:1,2019-03-02T20:00:00Z,25.2350,-80.4570,1.5,31.37,1111122 
ENP,ioos.station.NOAA.NDBC:LSNF1:1,2019-03-02T21:00:00Z,25.2350,-80.4570,1.5,31.44,1111122 
ENP,ioos.station.NOAA.NDBC:LSNF1:1,2019-03-02T22:00:00Z,25.2350,-80.4570,1.5,31.29,1111122 
ENP,ioos.station.NOAA.NDBC:LSNF1:1,2019-03-02T23:00:00Z,25.2350,-80.4570,1.5,31.37,1111122 
ENP,ioos.station.NOAA.NDBC:LSNF1:1,2019-03-03T11:00:00Z,25.2350,-80.4570,1.5,31.3,11111222 
ENP,ioos.station.NOAA.NDBC:LSNF1:1,2019-03-03T12:00:00Z,25.2350,-80.4570,1.5,31.3,11111222 
ENP,ioos.station.NOAA.NDBC:LSNF1:1,2019-03-03T13:00:00Z,25.2350,-80.4570,1.5,31.29,1111122 
ENP,ioos.station.NOAA.NDBC:LSNF1:1,2019-03-03T14:00:00Z,25.2350,-80.4570,1.5,31.29,1111122 
ENP,ioos.station.NOAA.NDBC:LSNF1:1,2019-03-03T15:00:00Z,25.2350,-80.4570,1.5,31.29,1111122 
ENP,ioos.station.NOAA.NDBC:LSNF1:1,2019-03-03T16:00:00Z,25.2350,-80.4570,1.5,31.29,1111122 
ENP,ioos.station.NOAA.NDBC:LSNF1:1,2019-03-03T17:00:00Z,25.2350,-80.4570,1.5,31.29,1111122 
ENP,ioos.station.NOAA.NDBC:LSNF1:1,2019-03-03T18:00:00Z,25.2350,-80.4570,1.5,31.3,11111222 
ENP,ioos.station.NOAA.NDBC:LSNF1:1,2019-03-03T19:00:00Z,25.2350,-80.4570,1.5,31.15,1111122 
ENP,ioos.station.NOAA.NDBC:LSNF1:1,2019-03-03T20:00:00Z,25.2350,-80.4570,1.5,31.29,1111122 
ENP,ioos.station.NOAA.NDBC:LSNF1:1,2019-03-03T21:00:00Z,25.2350,-80.4570,1.5,31.29,1111122 
ENP,ioos.station.NOAA.NDBC:LSNF1:1,2019-03-03T22:00:00Z,25.2350,-80.4570,1.5,31.22,1111122 
ENP,ioos.station.NOAA.NDBC:LSNF1:1,2019-03-03T23:00:00Z,25.2350,-80.4570,1.5,31.22,1111122 
ENP,ioos.station.NOAA.NDBC:LSNF1:1,2019-03-04T11:00:00Z,25.2350,-80.4570,1.5,31.4,11111222 
ENP,ioos.station.NOAA.NDBC:LSNF1:1,2019-03-04T12:00:00Z,25.2350,-80.4570,1.5,31.4,11111222 
ENP,ioos.station.NOAA.NDBC:LSNF1:1,2019-03-04T13:00:00Z,25.2350,-80.4570,1.5,31.44,1111122 
ENP,ioos.station.NOAA.NDBC:LSNF1:1,2019-03-04T14:00:00Z,25.2350,-80.4570,1.5,31.44,1111122 
ENP,ioos.station.NOAA.NDBC:LSNF1:1,2019-03-04T15:00:00Z,25.2350,-80.4570,1.5,31.29,1111122 
ENP,ioos.station.NOAA.NDBC:LSNF1:1,2019-03-04T16:00:00Z,25.2350,-80.4570,1.5,31.37,1111122 
ENP,ioos.station.NOAA.NDBC:LSNF1:1,2019-03-04T17:00:00Z,25.2350,-80.4570,1.5,31.37,1111122 
ENP,ioos.station.NOAA.NDBC:LSNF1:1,2019-03-04T18:00:00Z,25.2350,-80.4570,1.5,31.37,1111122 
ENP,ioos.station.NOAA.NDBC:LSNF1:1,2019-03-04T19:00:00Z,25.2350,-80.4570,1.5,31.44,1111122 
ENP,ioos.station.NOAA.NDBC:LSNF1:1,2019-03-04T20:00:00Z,25.2350,-80.4570,1.5,31.51,1111122 
ENP,ioos.station.NOAA.NDBC:LSNF1:1,2019-03-04T21:00:00Z,25.2350,-80.4570,1.5,31.44,1111122 
ENP,ioos.station.NOAA.NDBC:LSNF1:1,2019-03-04T22:00:00Z,25.2350,-80.4570,1.5,31.44,1111122 
ENP,ioos.station.NOAA.NDBC:LSNF1:1,2019-03-04T23:00:00Z,25.2350,-80.4570,1.5,31.51,1111122 
ENP,ioos.station.NOAA.NDBC:LSNF1:1,2019-03-05T11:00:00Z,25.2350,-80.4570,1.5,31.7,11111222 
ENP,ioos.station.NOAA.NDBC:LSNF1:1,2019-03-05T12:00:00Z,25.2350,-80.4570,1.5,31.7,11111222 
ENP,ioos.station.NOAA.NDBC:LSNF1:1,2019-03-05T13:00:00Z,25.2350,-80.4570,1.5,31.58,1111122 
ENP,ioos.station.NOAA.NDBC:LSNF1:1,2019-03-05T14:00:00Z,25.2350,-80.4570,1.5,31.66,1111122 
ENP,ioos.station.NOAA.NDBC:LSNF1:1,2019-03-05T15:00:00Z,25.2350,-80.4570,1.5,31.66,1111122 
ENP,ioos.station.NOAA.NDBC:LSNF1:1,2019-03-05T16:00:00Z,25.2350,-80.4570,1.5,31.73,1111122 
ENP,ioos.station.NOAA.NDBC:LSNF1:1,2019-03-05T17:00:00Z,25.2350,-80.4570,1.5,31.58,1111122 
ENP,ioos.station.NOAA.NDBC:LSNF1:1,2019-03-05T18:00:00Z,25.2350,-80.4570,1.5,31.37,1111122 
ENP,ioos.station.NOAA.NDBC:LSNF1:1,2019-03-05T19:00:00Z,25.2350,-80.4570,1.5,31.58,1111122 
ENP,ioos.station.NOAA.NDBC:LSNF1:1,2019-03-05T20:00:00Z,25.2350,-80.4570,1.5,31.66,1111122 
ENP,ioos.station.NOAA.NDBC:LSNF1:1,2019-03-05T21:00:00Z,25.2350,-80.4570,1.5,31.6,11111222 
ENP,ioos.station.NOAA.NDBC:LSNF1:1,2019-03-05T22:00:00Z,25.2350,-80.4570,1.5,31.58,1111122 
ENP,ioos.station.NOAA.NDBC:LSNF1:1,2019-03-05T23:00:00Z,25.2350,-80.4570,1.5,31.58,1111122 
ENP,ioos.station.NOAA.NDBC:LSNF1:1,2019-03-06T11:00:00Z,25.2350,-80.4570,1.5,31.5,11111222 
ENP,ioos.station.NOAA.NDBC:LSNF1:1,2019-03-06T12:00:00Z,25.2350,-80.4570,1.5,31.5,11111222 
ENP,ioos.station.NOAA.NDBC:LSNF1:1,2019-03-06T13:00:00Z,25.2350,-80.4570,1.5,31.51,1111122 
ENP,ioos.station.NOAA.NDBC:LSNF1:1,2019-03-06T14:00:00Z,25.2350,-80.4570,1.5,31.58,1111122 
ENP,ioos.station.NOAA.NDBC:LSNF1:1,2019-03-06T15:00:00Z,25.2350,-80.4570,1.5,31.58,1111122 
ENP,ioos.station.NOAA.NDBC:LSNF1:1,2019-03-06T16:00:00Z,25.2350,-80.4570,1.5,31.58,1111122 
ENP,ioos.station.NOAA.NDBC:LSNF1:1,2019-03-06T17:00:00Z,25.2350,-80.4570,1.5,31.58,1111122 
ENP,ioos.station.NOAA.NDBC:LSNF1:1,2019-03-06T18:00:00Z,25.2350,-80.4570,1.5,31.66,1111122 
ENP,ioos.station.NOAA.NDBC:LSNF1:1,2019-03-06T19:00:00Z,25.2350,-80.4570,1.5,31.66,1111122 
ENP,ioos.station.NOAA.NDBC:LSNF1:1,2019-03-06T20:00:00Z,25.2350,-80.4570,1.5,31.58,1111122 
ENP,ioos.station.NOAA.NDBC:LSNF1:1,2019-03-06T21:00:00Z,25.2350,-80.4570,1.5,31.58,1111122 
ENP,ioos.station.NOAA.NDBC:LSNF1:1,2019-03-06T22:00:00Z,25.2350,-80.4570,1.5,31.66,1111122 
ENP,ioos.station.NOAA.NDBC:LSNF1:1,2019-03-06T23:00:00Z,25.2350,-80.4570,1.5,31.73,1111122 
ENP,ioos.station.NOAA.NDBC:LSNF1:1,2019-03-07T11:00:00Z,25.2350,-80.4570,1.5,31.7,11111222 
ENP,ioos.station.NOAA.NDBC:LSNF1:1,2019-03-07T12:00:00Z,25.2350,-80.4570,1.5,31.6,11111222 
ENP,ioos.station.NOAA.NDBC:LSNF1:1,2019-03-07T13:00:00Z,25.2350,-80.4570,1.5,31.58,1111122 
ENP,ioos.station.NOAA.NDBC:LSNF1:1,2019-03-07T14:00:00Z,25.2350,-80.4570,1.5,31.58,1111122 
ENP,ioos.station.NOAA.NDBC:LSNF1:1,2019-03-07T15:00:00Z,25.2350,-80.4570,1.5,31.66,1111122 
ENP,ioos.station.NOAA.NDBC:LSNF1:1,2019-03-07T16:00:00Z,25.2350,-80.4570,1.5,31.66,1111122 
ENP,ioos.station.NOAA.NDBC:LSNF1:1,2019-03-07T17:00:00Z,25.2350,-80.4570,1.5,31.66,1111122 
ENP,ioos.station.NOAA.NDBC:LSNF1:1,2019-03-07T18:00:00Z,25.2350,-80.4570,1.5,31.66,1111122 
ENP,ioos.station.NOAA.NDBC:LSNF1:1,2019-03-07T19:00:00Z,25.2350,-80.4570,1.5,31.66,1111122 
ENP,ioos.station.NOAA.NDBC:LSNF1:1,2019-03-07T20:00:00Z,25.2350,-80.4570,1.5,31.66,1111122 
ENP,ioos.station.NOAA.NDBC:LSNF1:1,2019-03-07T21:00:00Z,25.2350,-80.4570,1.5,31.73,1111122 
ENP,ioos.station.NOAA.NDBC:LSNF1:1,2019-03-07T22:00:00Z,25.2350,-80.4570,1.5,31.73,1111122 
ENP,ioos.station.NOAA.NDBC:LSNF1:1,2019-03-07T23:00:00Z,25.2350,-80.4570,1.5,31.8,1111122 
ENP,ioos.station.NOAA.NDBC:LSNF1:1,2019-03-08T11:00:00Z,25.2350,-80.4570,1.5,32.1,11111222 
ENP,ioos.station.NOAA.NDBC:LSNF1:1,2019-03-08T12:00:00Z,25.2350,-80.4570,1.5,32.5,11111222 
ENP,ioos.station.NOAA.NDBC:LSNF1:1,2019-03-08T13:00:00Z,25.2350,-80.4570,1.5,32.09,1111122 
ENP,ioos.station.NOAA.NDBC:LSNF1:1,2019-03-08T14:00:00Z,25.2350,-80.4570,1.5,32.0,11111222 
ENP,ioos.station.NOAA.NDBC:LSNF1:1,2019-03-08T15:00:00Z,25.2350,-80.4570,1.5,32.24,1111122 
ENP,ioos.station.NOAA.NDBC:LSNF1:1,2019-03-08T16:00:00Z,25.2350,-80.4570,1.5,32.17,1111122 
ENP,ioos.station.NOAA.NDBC:LSNF1:1,2019-03-08T17:00:00Z,25.2350,-80.4570,1.5,32.17,1111122 
ENP,ioos.station.NOAA.NDBC:LSNF1:1,2019-03-08T18:00:00Z,25.2350,-80.4570,1.5,31.8,1111122 
ENP,ioos.station.NOAA.NDBC:LSNF1:1,2019-03-08T19:00:00Z,25.2350,-80.4570,1.5,32.17,1111122 
ENP,ioos.station.NOAA.NDBC:LSNF1:1,2019-03-08T23:00:00Z,25.2350,-80.4570,1.5,32.4,11111222 
ENP,ioos.station.NOAA.NDBC:LSNF1:1,2019-03-09T00:00:00Z,25.2350,-80.4570,1.5,32.3,11111222 
ENP,ioos.station.NOAA.NDBC:LSNF1:1,2019-03-09T01:00:00Z,25.2350,-80.4570,1.5,32.31,1111122 
ENP,ioos.station.NOAA.NDBC:LSNF1:1,2019-03-09T11:00:00Z,25.2350,-80.4570,1.5,32.4,11111222 
ENP,ioos.station.NOAA.NDBC:LSNF1:1,2019-03-09T12:00:00Z,25.2350,-80.4570,1.5,32.3,11111222 
ENP,ioos.station.NOAA.NDBC:LSNF1:1,2019-03-09T13:00:00Z,25.2350,-80.4570,1.5,32.38,1111122 
ENP,ioos.station.NOAA.NDBC:LSNF1:1,2019-03-09T14:00:00Z,25.2350,-80.4570,1.5,32.17,1111122 
ENP,ioos.station.NOAA.NDBC:LSNF1:1,2019-03-09T15:00:00Z,25.2350,-80.4570,1.5,32.53,1111122 
ENP,ioos.station.NOAA.NDBC:LSNF1:1,2019-03-09T16:00:00Z,25.2350,-80.4570,1.5,32.6,1111122 
ENP,ioos.station.NOAA.NDBC:LSNF1:1,2019-03-09T17:00:00Z,25.2350,-80.4570,1.5,32.6,1111122 
ENP,ioos.station.NOAA.NDBC:LSNF1:1,2019-03-09T18:00:00Z,25.2350,-80.4570,1.5,32.31,1111122 
ENP,ioos.station.NOAA.NDBC:LSNF1:1,2019-03-09T19:00:00Z,25.2350,-80.4570,1.5,32.68,1111122 
ENP,ioos.station.NOAA.NDBC:LSNF1:1,2019-03-09T20:00:00Z,25.2350,-80.4570,1.5,32.68,1111122 
ENP,ioos.station.NOAA.NDBC:LSNF1:1,2019-03-09T21:00:00Z,25.2350,-80.4570,1.5,32.68,1111122 
ENP,ioos.station.NOAA.NDBC:LSNF1:1,2019-03-09T22:00:00Z,25.2350,-80.4570,1.5,32.75,1111122 
ENP,ioos.station.NOAA.NDBC:LSNF1:1,2019-03-09T23:00:00Z,25.2350,-80.4570,1.5,32.82,1111122 
ENP,ioos.station.NOAA.NDBC:LSNF1:1,2019-03-10T12:00:00Z,25.2350,-80.4570,1.5,33.0,11111222 
ENP,ioos.station.NOAA.NDBC:LSNF1:1,2019-03-10T13:00:00Z,25.2350,-80.4570,1.5,32.82,1111122 
ENP,ioos.station.NOAA.NDBC:LSNF1:1,2019-03-10T14:00:00Z,25.2350,-80.4570,1.5,32.9,1111122 
ENP,ioos.station.NOAA.NDBC:LSNF1:1,2019-03-10T15:00:00Z,25.2350,-80.4570,1.5,33.04,1111122 
ENP,ioos.station.NOAA.NDBC:LSNF1:1,2019-03-10T16:00:00Z,25.2350,-80.4570,1.5,33.19,1111122 
ENP,ioos.station.NOAA.NDBC:LSNF1:1,2019-03-10T17:00:00Z,25.2350,-80.4570,1.5,33.26,1111122 
ENP,ioos.station.NOAA.NDBC:LSNF1:1,2019-03-10T18:00:00Z,25.2350,-80.4570,1.5,33.26,1111122 
ENP,ioos.station.NOAA.NDBC:LSNF1:1,2019-03-10T19:00:00Z,25.2350,-80.4570,1.5,33.33,1111122 
ENP,ioos.station.NOAA.NDBC:LSNF1:1,2019-03-10T20:00:00Z,25.2350,-80.4570,1.5,33.33,1111122 
ENP,ioos.station.NOAA.NDBC:LSNF1:1,2019-03-10T21:00:00Z,25.2350,-80.4570,1.5,33.26,1111122 
ENP,ioos.station.NOAA.NDBC:LSNF1:1,2019-03-10T22:00:00Z,25.2350,-80.4570,1.5,33.4,11111222 
ENP,ioos.station.NOAA.NDBC:LSNF1:1,2019-03-10T23:00:00Z,25.2350,-80.4570,1.5,33.55,1111122 
ENP,ioos.station.NOAA.NDBC:LSNF1:1,2019-03-11T12:00:00Z,25.2350,-80.4570,1.5,33.6,11111222 
ENP,ioos.station.NOAA.NDBC:LSNF1:1,2019-03-11T13:00:00Z,25.2350,-80.4570,1.5,33.41,1111122 
ENP,ioos.station.NOAA.NDBC:LSNF1:1,2019-03-11T14:00:00Z,25.2350,-80.4570,1.5,33.33,1111122 
ENP,ioos.station.NOAA.NDBC:LSNF1:1,2019-03-11T15:00:00Z,25.2350,-80.4570,1.5,33.26,1111122 
ENP,ioos.station.NOAA.NDBC:LSNF1:1,2019-03-11T16:00:00Z,25.2350,-80.4570,1.5,33.33,1111122 
ENP,ioos.station.NOAA.NDBC:LSNF1:1,2019-03-11T17:00:00Z,25.2350,-80.4570,1.5,33.3,11111222 
ENP,ioos.station.NOAA.NDBC:LSNF1:1,2019-03-11T18:00:00Z,25.2350,-80.4570,1.5,33.26,1111122 
ENP,ioos.station.NOAA.NDBC:LSNF1:1,2019-03-11T19:00:00Z,25.2350,-80.4570,1.5,33.33,1111122 
ENP,ioos.station.NOAA.NDBC:LSNF1:1,2019-03-11T20:00:00Z,25.2350,-80.4570,1.5,33.41,1111122 
ENP,ioos.station.NOAA.NDBC:LSNF1:1,2019-03-11T21:00:00Z,25.2350,-80.4570,1.5,33.41,1111122 
ENP,ioos.station.NOAA.NDBC:LSNF1:1,2019-03-11T22:00:00Z,25.2350,-80.4570,1.5,33.48,1111122 
ENP,ioos.station.NOAA.NDBC:LSNF1:1,2019-03-11T23:00:00Z,25.2350,-80.4570,1.5,33.41,1111122 
ENP,ioos.station.NOAA.NDBC:LSNF1:1,2019-03-12T00:00:00Z,25.2350,-80.4570,1.5,33.41,1111122 
ENP,ioos.station.NOAA.NDBC:LSNF1:1,2019-03-12T01:00:00Z,25.2350,-80.4570,1.5,33.41,1111122 
ENP,ioos.station.NOAA.NDBC:LSNF1:1,2019-03-12T02:00:00Z,25.2350,-80.4570,1.5,33.33,1111122 
ENP,ioos.station.NOAA.NDBC:LSNF1:1,2019-03-12T12:00:00Z,25.2350,-80.4570,1.5,33.8,11111222 
ENP,ioos.station.NOAA.NDBC:LSNF1:1,2019-03-12T13:00:00Z,25.2350,-80.4570,1.5,33.7,1111122 
ENP,ioos.station.NOAA.NDBC:LSNF1:1,2019-03-12T14:00:00Z,25.2350,-80.4570,1.5,33.7,1111122 
ENP,ioos.station.NOAA.NDBC:LSNF1:1,2019-03-12T15:00:00Z,25.2350,-80.4570,1.5,33.7,1111122 
ENP,ioos.station.NOAA.NDBC:LSNF1:1,2019-03-12T16:00:00Z,25.2350,-80.4570,1.5,33.63,1111122 
ENP,ioos.station.NOAA.NDBC:LSNF1:1,2019-03-12T17:00:00Z,25.2350,-80.4570,1.5,33.7,11111222 
ENP,ioos.station.NOAA.NDBC:LSNF1:1,2019-03-12T18:00:00Z,25.2350,-80.4570,1.5,33.55,1111122 
ENP,ioos.station.NOAA.NDBC:LSNF1:1,2019-03-12T19:00:00Z,25.2350,-80.4570,1.5,33.55,1111122 
ENP,ioos.station.NOAA.NDBC:LSNF1:1,2019-03-12T20:00:00Z,25.2350,-80.4570,1.5,33.55,1111122 
ENP,ioos.station.NOAA.NDBC:LSNF1:1,2019-03-12T21:00:00Z,25.2350,-80.4570,1.5,33.63,1111122 
ENP,ioos.station.NOAA.NDBC:LSNF1:1,2019-03-12T22:00:00Z,25.2350,-80.4570,1.5,33.48,1111122 
ENP,ioos.station.NOAA.NDBC:LSNF1:1,2019-03-12T23:00:00Z,25.2350,-80.4570,1.5,33.63,1111122 
ENP,ioos.station.NOAA.NDBC:LSNF1:1,2019-03-13T12:00:00Z,25.2350,-80.4570,1.5,33.4,11111222 
ENP,ioos.station.NOAA.NDBC:LSNF1:1,2019-03-13T13:00:00Z,25.2350,-80.4570,1.5,33.33,1111122 
ENP,ioos.station.NOAA.NDBC:LSNF1:1,2019-03-13T14:00:00Z,25.2350,-80.4570,1.5,33.33,1111122 
ENP,ioos.station.NOAA.NDBC:LSNF1:1,2019-03-13T15:00:00Z,25.2350,-80.4570,1.5,33.19,1111122 
ENP,ioos.station.NOAA.NDBC:LSNF1:1,2019-03-13T16:00:00Z,25.2350,-80.4570,1.5,33.19,1111122 
ENP,ioos.station.NOAA.NDBC:LSNF1:1,2019-03-13T17:00:00Z,25.2350,-80.4570,1.5,33.1,11111222 
ENP,ioos.station.NOAA.NDBC:LSNF1:1,2019-03-13T18:00:00Z,25.2350,-80.4570,1.5,33.19,1111122 
ENP,ioos.station.NOAA.NDBC:LSNF1:1,2019-03-13T19:00:00Z,25.2350,-80.4570,1.5,33.12,1111122 
ENP,ioos.station.NOAA.NDBC:LSNF1:1,2019-03-13T20:00:00Z,25.2350,-80.4570,1.5,33.26,1111122 
ENP,ioos.station.NOAA.NDBC:LSNF1:1,2019-03-13T21:00:00Z,25.2350,-80.4570,1.5,33.19,1111122 
ENP,ioos.station.NOAA.NDBC:LSNF1:1,2019-03-13T22:00:00Z,25.2350,-80.4570,1.5,33.26,1111122 
ENP,ioos.station.NOAA.NDBC:LSNF1:1,2019-03-13T23:00:00Z,25.2350,-80.4570,1.5,33.26,1111122 
ENP,ioos.station.NOAA.NDBC:LSNF1:1,2019-03-14T00:00:00Z,25.2350,-80.4570,1.5,33.3,11111222 
ENP,ioos.station.NOAA.NDBC:LSNF1:1,2019-03-14T01:00:00Z,25.2350,-80.4570,1.5,33.41,1111122 
ENP,ioos.station.NOAA.NDBC:LSNF1:1,2019-03-14T03:00:00Z,25.2350,-80.4570,1.5,33.5,11111222 
ENP,ioos.station.NOAA.NDBC:LSNF1:1,2019-03-14T04:00:00Z,25.2350,-80.4570,1.5,33.55,1111122 
ENP,ioos.station.NOAA.NDBC:LSNF1:1,2019-03-14T05:00:00Z,25.2350,-80.4570,1.5,33.6,11111222 
ENP,ioos.station.NOAA.NDBC:LSNF1:1,2019-03-14T06:00:00Z,25.2350,-80.4570,1.5,33.55,1111122 
ENP,ioos.station.NOAA.NDBC:LSNF1:1,2019-03-14T07:00:00Z,25.2350,-80.4570,1.5,33.55,1111122 
ENP,ioos.station.NOAA.NDBC:LSNF1:1,2019-03-14T12:00:00Z,25.2350,-80.4570,1.5,34.1,11111222 
ENP,ioos.station.NOAA.NDBC:LSNF1:1,2019-03-14T13:00:00Z,25.2350,-80.4570,1.5,34.22,1111122 
ENP,ioos.station.NOAA.NDBC:LSNF1:1,2019-03-14T14:00:00Z,25.2350,-80.4570,1.5,34.29,1111122 
ENP,ioos.station.NOAA.NDBC:LSNF1:1,2019-03-14T15:00:00Z,25.2350,-80.4570,1.5,34.29,1111122 
ENP,ioos.station.NOAA.NDBC:LSNF1:1,2019-03-14T16:00:00Z,25.2350,-80.4570,1.5,34.44,1111122 
ENP,ioos.station.NOAA.NDBC:LSNF1:1,2019-03-14T18:00:00Z,25.2350,-80.4570,1.5,34.2,11111222 
ENP,ioos.station.NOAA.NDBC:LSNF1:1,2019-03-14T19:00:00Z,25.2350,-80.4570,1.5,34.29,1111122 
ENP,ioos.station.NOAA.NDBC:LSNF1:1,2019-03-14T20:00:00Z,25.2350,-80.4570,1.5,34.22,1111122 
ENP,ioos.station.NOAA.NDBC:LSNF1:1,2019-03-14T21:00:00Z,25.2350,-80.4570,1.5,34.14,1111122 
ENP,ioos.station.NOAA.NDBC:LSNF1:1,2019-03-14T22:00:00Z,25.2350,-80.4570,1.5,34.14,1111122 
ENP,ioos.station.NOAA.NDBC:LSNF1:1,2019-03-14T23:00:00Z,25.2350,-80.4570,1.5,34.22,1111122 
ENP,ioos.station.NOAA.NDBC:LSNF1:1,2019-03-15T00:00:00Z,25.2350,-80.4570,1.5,34.2,11111222 
ENP,ioos.station.NOAA.NDBC:LSNF1:1,2019-03-15T01:00:00Z,25.2350,-80.4570,1.5,34.29,1111122 
ENP,ioos.station.NOAA.NDBC:LSNF1:1,2019-03-15T02:00:00Z,25.2350,-80.4570,1.5,34.29,1111122 
ENP,ioos.station.NOAA.NDBC:LSNF1:1,2019-03-15T03:00:00Z,25.2350,-80.4570,1.5,34.3,11111222 
ENP,ioos.station.NOAA.NDBC:LSNF1:1,2019-03-15T04:00:00Z,25.2350,-80.4570,1.5,34.36,1111122 
ENP,ioos.station.NOAA.NDBC:LSNF1:1,2019-03-15T05:00:00Z,25.2350,-80.4570,1.5,34.36,1111122 
ENP,ioos.station.NOAA.NDBC:LSNF1:1,2019-03-15T12:00:00Z,25.2350,-80.4570,1.5,34.4,11111222 
ENP,ioos.station.NOAA.NDBC:LSNF1:1,2019-03-15T13:00:00Z,25.2350,-80.4570,1.5,34.44,1111122 
ENP,ioos.station.NOAA.NDBC:LSNF1:1,2019-03-15T14:00:00Z,25.2350,-80.4570,1.5,34.44,1111122 
ENP,ioos.station.NOAA.NDBC:LSNF1:1,2019-03-15T15:00:00Z,25.2350,-80.4570,1.5,34.44,1111122 
ENP,ioos.station.NOAA.NDBC:LSNF1:1,2019-03-15T16:00:00Z,25.2350,-80.4570,1.5,34.51,1111122 
ENP,ioos.station.NOAA.NDBC:LSNF1:1,2019-03-15T17:00:00Z,25.2350,-80.4570,1.5,34.3,11111222 
ENP,ioos.station.NOAA.NDBC:LSNF1:1,2019-03-15T18:00:00Z,25.2350,-80.4570,1.5,34.22,1111122 
ENP,ioos.station.NOAA.NDBC:LSNF1:1,2019-03-15T19:00:00Z,25.2350,-80.4570,1.5,34.22,1111122 
ENP,ioos.station.NOAA.NDBC:LSNF1:1,2019-03-15T20:00:00Z,25.2350,-80.4570,1.5,34.22,1111122 
ENP,ioos.station.NOAA.NDBC:LSNF1:1,2019-03-15T21:00:00Z,25.2350,-80.4570,1.5,34.44,1111122 
ENP,ioos.station.NOAA.NDBC:LSNF1:1,2019-03-15T22:00:00Z,25.2350,-80.4570,1.5,34.44,1111122 
ENP,ioos.station.NOAA.NDBC:LSNF1:1,2019-03-15T23:00:00Z,25.2350,-80.4570,1.5,34.36,1111122 
ENP,ioos.station.NOAA.NDBC:LSNF1:1,2019-03-16T01:00:00Z,25.2350,-80.4570,1.5,34.44,1111122 
ENP,ioos.station.NOAA.NDBC:LSNF1:1,2019-03-16T12:00:00Z,25.2350,-80.4570,1.5,34.4,11111222 
ENP,ioos.station.NOAA.NDBC:LSNF1:1,2019-03-16T13:00:00Z,25.2350,-80.4570,1.5,34.29,1111122 
ENP,ioos.station.NOAA.NDBC:LSNF1:1,2019-03-16T14:00:00Z,25.2350,-80.4570,1.5,34.29,1111122 
ENP,ioos.station.NOAA.NDBC:LSNF1:1,2019-03-16T15:00:00Z,25.2350,-80.4570,1.5,34.29,1111122 
ENP,ioos.station.NOAA.NDBC:LSNF1:1,2019-03-16T16:00:00Z,25.2350,-80.4570,1.5,34.29,1111122 
ENP,ioos.station.NOAA.NDBC:LSNF1:1,2019-03-16T17:00:00Z,25.2350,-80.4570,1.5,34.3,11111222 
ENP,ioos.station.NOAA.NDBC:LSNF1:1,2019-03-16T18:00:00Z,25.2350,-80.4570,1.5,34.29,1111122 
ENP,ioos.station.NOAA.NDBC:LSNF1:1,2019-03-16T19:00:00Z,25.2350,-80.4570,1.5,34.29,1111122 
ENP,ioos.station.NOAA.NDBC:LSNF1:1,2019-03-16T20:00:00Z,25.2350,-80.4570,1.5,34.36,1111122 
ENP,ioos.station.NOAA.NDBC:LSNF1:1,2019-03-16T21:00:00Z,25.2350,-80.4570,1.5,34.44,1111122 
ENP,ioos.station.NOAA.NDBC:LSNF1:1,2019-03-16T22:00:00Z,25.2350,-80.4570,1.5,34.29,1111122 
ENP,ioos.station.NOAA.NDBC:LSNF1:1,2019-03-16T23:00:00Z,25.2350,-80.4570,1.5,34.29,1111122 
ENP,ioos.station.NOAA.NDBC:LSNF1:1,2019-03-17T12:00:00Z,25.2350,-80.4570,1.5,35.6,11111222 
ENP,ioos.station.NOAA.NDBC:LSNF1:1,2019-03-17T13:00:00Z,25.2350,-80.4570,1.5,35.62,1111122 
ENP,ioos.station.NOAA.NDBC:LSNF1:1,2019-03-17T14:00:00Z,25.2350,-80.4570,1.5,35.62,1111122 
ENP,ioos.station.NOAA.NDBC:LSNF1:1,2019-03-17T15:00:00Z,25.2350,-80.4570,1.5,35.47,1111122 
ENP,ioos.station.NOAA.NDBC:LSNF1:1,2019-03-17T16:00:00Z,25.2350,-80.4570,1.5,35.54,1111122 
ENP,ioos.station.NOAA.NDBC:LSNF1:1,2019-03-17T17:00:00Z,25.2350,-80.4570,1.5,35.5,11111222 
ENP,ioos.station.NOAA.NDBC:LSNF1:1,2019-03-17T18:00:00Z,25.2350,-80.4570,1.5,35.47,1111122 
ENP,ioos.station.NOAA.NDBC:LSNF1:1,2019-03-17T19:00:00Z,25.2350,-80.4570,1.5,35.54,1111122 
ENP,ioos.station.NOAA.NDBC:LSNF1:1,2019-03-17T20:00:00Z,25.2350,-80.4570,1.5,35.1,1111122 
ENP,ioos.station.NOAA.NDBC:LSNF1:1,2019-03-17T21:00:00Z,25.2350,-80.4570,1.5,34.58,1111122 
ENP,ioos.station.NOAA.NDBC:LSNF1:1,2019-03-17T22:00:00Z,25.2350,-80.4570,1.5,34.22,1111122 
ENP,ioos.station.NOAA.NDBC:LSNF1:1,2019-03-17T23:00:00Z,25.2350,-80.4570,1.5,34.73,1111122 
ENP,ioos.station.NOAA.NDBC:LSNF1:1,2019-03-18T00:00:00Z,25.2350,-80.4570,1.5,34.73,1111122 
ENP,ioos.station.NOAA.NDBC:LSNF1:1,2019-03-18T12:00:00Z,25.2350,-80.4570,1.5,35.1,11111222 
ENP,ioos.station.NOAA.NDBC:LSNF1:1,2019-03-18T13:00:00Z,25.2350,-80.4570,1.5,35.1,1111122 
ENP,ioos.station.NOAA.NDBC:LSNF1:1,2019-03-18T14:00:00Z,25.2350,-80.4570,1.5,35.1,1111122 
ENP,ioos.station.NOAA.NDBC:LSNF1:1,2019-03-18T15:00:00Z,25.2350,-80.4570,1.5,35.1,1111122 
ENP,ioos.station.NOAA.NDBC:LSNF1:1,2019-03-18T16:00:00Z,25.2350,-80.4570,1.5,35.1,1111122 
ENP,ioos.station.NOAA.NDBC:LSNF1:1,2019-03-18T17:00:00Z,25.2350,-80.4570,1.5,35.2,11111222 
ENP,ioos.station.NOAA.NDBC:LSNF1:1,2019-03-18T18:00:00Z,25.2350,-80.4570,1.5,35.25,1111122 
ENP,ioos.station.NOAA.NDBC:LSNF1:1,2019-03-18T19:00:00Z,25.2350,-80.4570,1.5,35.25,1111122 
ENP,ioos.station.NOAA.NDBC:LSNF1:1,2019-03-18T20:00:00Z,25.2350,-80.4570,1.5,35.32,1111122 
ENP,ioos.station.NOAA.NDBC:LSNF1:1,2019-03-18T21:00:00Z,25.2350,-80.4570,1.5,35.1,1111122 
ENP,ioos.station.NOAA.NDBC:LSNF1:1,2019-03-18T22:00:00Z,25.2350,-80.4570,1.5,35.69,1111122 
ENP,ioos.station.NOAA.NDBC:LSNF1:1,2019-03-18T23:00:00Z,25.2350,-80.4570,1.5,35.25,1111122 
ENP,ioos.station.NOAA.NDBC:LSNF1:1,2019-03-19T15:00:00Z,25.2350,-80.4570,1.5,35.3,11111222 
ENP,ioos.station.NOAA.NDBC:LSNF1:1,2019-03-19T16:00:00Z,25.2350,-80.4570,1.5,35.1,1111122 
ENP,ioos.station.NOAA.NDBC:LSNF1:1,2019-03-19T17:00:00Z,25.2350,-80.4570,1.5,35.0,11111222 
ENP,ioos.station.NOAA.NDBC:LSNF1:1,2019-03-19T18:00:00Z,25.2350,-80.4570,1.5,34.73,1111122 
ENP,ioos.station.NOAA.NDBC:LSNF1:1,2019-03-19T19:00:00Z,25.2350,-80.4570,1.5,34.95,1111122 
ENP,ioos.station.NOAA.NDBC:LSNF1:1,2019-03-19T20:00:00Z,25.2350,-80.4570,1.5,34.8,1111122 
ENP,ioos.station.NOAA.NDBC:LSNF1:1,2019-03-19T21:00:00Z,25.2350,-80.4570,1.5,34.88,1111122 
ENP,ioos.station.NOAA.NDBC:LSNF1:1,2019-03-19T22:00:00Z,25.2350,-80.4570,1.5,34.88,1111122 
ENP,ioos.station.NOAA.NDBC:LSNF1:1,2019-03-19T23:00:00Z,25.2350,-80.4570,1.5,34.8,1111122 
ENP,ioos.station.NOAA.NDBC:LSNF1:1,2019-03-20T12:00:00Z,25.2350,-80.4570,1.5,35.1,11111222 
ENP,ioos.station.NOAA.NDBC:LSNF1:1,2019-03-20T13:00:00Z,25.2350,-80.4570,1.5,35.1,11111222 
ENP,ioos.station.NOAA.NDBC:LSNF1:1,2019-03-20T14:00:00Z,25.2350,-80.4570,1.5,35.1,1111122 
ENP,ioos.station.NOAA.NDBC:LSNF1:1,2019-03-20T15:00:00Z,25.2350,-80.4570,1.5,35.1,1111122 
ENP,ioos.station.NOAA.NDBC:LSNF1:1,2019-03-20T16:00:00Z,25.2350,-80.4570,1.5,35.17,1111122 
ENP,ioos.station.NOAA.NDBC:LSNF1:1,2019-03-20T17:00:00Z,25.2350,-80.4570,1.5,35.2,11111222 
ENP,ioos.station.NOAA.NDBC:LSNF1:1,2019-03-20T18:00:00Z,25.2350,-80.4570,1.5,35.25,1111122 
ENP,ioos.station.NOAA.NDBC:LSNF1:1,2019-03-20T19:00:00Z,25.2350,-80.4570,1.5,35.17,1111122 
ENP,ioos.station.NOAA.NDBC:LSNF1:1,2019-03-20T20:00:00Z,25.2350,-80.4570,1.5,35.25,1111122 